Location: Melizzano
(41.1500°N, 14.5000°E)
Time: 04:44:36
(UTC+00:00)

Cosmos 2112 Rocket - Pass Details

Date: 11 May 2021
Orbit: 755 x 788 km, 74.1° (Epoch: 14 June)

Event Time Altitude Azimuth Distance (km) Brightness Sun altitude
Rises 21:40:53 0° 339° (NNW) 3,285 8.5 -28.1°
Reaches altitude 10° 21:43:17 10° 338° (NNW) 2,355 7.5 -28.2°
Enters shadow 21:48:11 71° 299° (WNW) 834 4.2 -28.5°
